Regional Weather Roundup
Issued by NWS

Home | Current Version | Previous Version | Text Only | Print | Product List | Glossary On
Versions: 1 2 3 4 5 6 7 8 9 10 11 12 13 14 15 16 17 18 19 20 21 22 23 24 25 26 27 28 29 30 31 32 33 34 35 36 37 38 39 40 41 42 43 44 45 46 47 48 49 50
000
ASUS44 KLIX 292312
RWRLA
LOUISIANA WEATHER ROUNDUP
NATIONAL WEATHER SERVICE NEW ORLEANS LA
600 PM CDT MON JUN 29 2015

NOTE: "FAIR" INDICATES FEW OR NO CLOUDS BELOW 12,000 FEET WITH NO
      SIGNIFICANT WEATHER AND/OR OBSTRUCTIONS TO VISIBILITY.
      SKY/WX - SKY CONDITION AND SIGNIFICANT WEATHER.
      TMP - AIR TEMPERATURE.    DP   - DEWPOINT TEMPERATURE.
      RH  - RELATIVE HUMIDITY.  PRES - PRESSURE.
      HX  - HEAT INDEX.         WCI  - WIND CHILL INDEX.

*  THESE STATIONS ARE NOT NWS OR FAA STATIONS AND ARE NOT UNDER
   NWS QUALITY CONTROL.

LAZ040-048-061>063-065-066-069-300000-
SOUTHEAST LOUISIANA

CITY           SKY/WX    TMP DP  RH WIND       PRES   REMARKS
N.O. AUDUBON     N/A     90  76  64 MISG        N/A  HX 102
N.O. INTL ARPT PTSUNNY   87  71  58 NE6       30.00R
N.O. LAKEFRONT PTSUNNY   85  75  72 CALM      30.01S
N.O. DOWNTOWN* FAIR      84  72  65 CALM      30.01S
RESERVE*       NOT AVBL
SLIDELL        CLOUDY    83  74  74 S6        30.00S
BATON ROUGE    MOSUNNY   88  72  58 SW12      29.98F
BOOTHVILLE     MOSUNNY   86  75  69 SW14      30.03S HX  95
BELLE CHASSE   PTSUNNY   85  71  63 E5        30.00S
BOGALUSA*        N/A     84  74  72 CALM      30.01F
GALLIANO*      PTCLDY    89  75  62 SW14G21   30.02S HX  99
NEW ROADS*     FAIR     N/A N/A N/A S8        29.97S
GONZALES*      FAIR      87  76  70 S6        29.98F HX  96
HAMMOND*       PTSUNNY   90  72  55 SW6       30.00F HX  96
HOUMA*         NOT AVBL
PORT FOURCHON* CLEAR     86  75  70 SW10G16   30.04S HX  95

$$

LAZ041-044-053-054-300000-
SOUTHWEST LOUISIANA

CITY           SKY/WX    TMP DP  RH WIND       PRES   REMARKS
LAKE CHARLES   CLOUDY    86  75  69 SW9G17    29.98S HX  95
LAFAYETTE      MOSUNNY   88  72  58 SW14      29.98F
PATTERSON      MOSUNNY   86  73  66 SW12      30.02S
SALT POINT       N/A     87  77  72 VRB7      30.00F HX  99
NEW IBERIA     MOSUNNY   89  75  63 SW12      29.99S HX  99
CHENAULT AIRPK NOT AVBL

$$

LAZ027-028-300000-
CENTRAL LOUISIANA

CITY           SKY/WX    TMP DP  RH WIND       PRES   REMARKS
FORT POLK      MOSUNNY   88  73  61 SW7       29.95S HX  95
ALEXANDRIA INT MOSUNNY   86  75  69 SW5       29.94S HX  95
ALEXANDRIA     MOSUNNY   89  74  60 SW8       29.95S HX  98

$$

LAZ001-002-300000-
NORTHWEST LOUISIANA

CITY           SKY/WX    TMP DP  RH WIND       PRES   REMARKS
SHREVEPORT     LGT RAIN  79  77  94 W5        29.95S
BARKSDALE AFB  LGT RAIN  77  70  78 W8        29.94S
DTN SHREVEPORT TSTM      75  69  81 N7        29.95F

$$

LAZ014-016-300000-
NORTHEAST LOUISIANA

CITY           SKY/WX    TMP DP  RH WIND       PRES   REMARKS
MONROE         PTSUNNY   89  76  65 SW9       29.92F HX 100
TALLULAH       PTSUNNY   83  74  74 S3        29.93F

$$




USA.gov is the U.S. government's official web portal to all federal, state and local government web resources and services.